EW8728 Weather Reports


Display with metric or nautical units.
time (UTC)temp
F
wind
direction
speed
MPH
gust
MPH
rain 1hr
in
rain 24hr
in
rain mn
in
humidity
%
barometer
mb
20260504081555 58 15 0.0 0.0 0.00 0.00 0.00 78 1012.7
20260504050023 51 15 0.0 0.0 0.00 0.00 0.00 83 1012.5
20260504044523 51 15 0.0 0.0 0.00 0.00 0.00 83 1012.7
20260504043025 50 15 0.0 0.0 0.00 0.00 0.00 83 1012.7
20260504041521 50 15 0.0 0.0 0.00 0.00 0.00 83 1012.7
20260504040015 50 15 0.0 0.0 0.00 0.00 0.00 83 1012.6
20260504034513 50 15 0.0 0.0 0.00 0.00 0.00 83 1012.6
20260504033014 50 15 0.0 0.0 0.00 0.00 0.00 82 1012.7
20260504031511 51 15 0.0 0.0 0.00 0.00 0.00 82 1012.8
20260504030015 51 15 0.0 0.0 0.00 0.00 0.00 82 1013.0
20260504024507 51 15 0.0 0.0 0.00 0.00 0.00 82 1012.9
20260504023005 52 15 0.0 0.0 0.00 0.00 0.00 81 1013.1
20260504021503 52 15 0.0 0.0 0.00 0.00 0.00 80 1013.0
20260504020003 52 15 0.0 0.0 0.00 0.00 0.00 80 1012.9
20260504014505 52 15 0.0 0.0 0.00 0.00 0.00 81 1013.0
20260504013002 52 15 0.0 0.0 0.00 0.00 0.00 81 1013.0
20260504011603 52 15 0.0 0.0 0.00 0.00 0.00 80 1013.0
20260504010106 53 15 0.0 0.0 0.00 0.00 0.00 79 1013.1
20260504004608 53 15 0.0 0.0 0.00 0.00 0.00 79 1012.9
20260504003054 54 15 0.0 0.0 0.00 0.00 0.00 78 1013.0
20260504001552 54 15 0.0 0.0 0.00 0.00 0.00 77 1013.1
20260504000050 54 15 0.0 0.0 0.00 0.00 0.00 77 1013.2
20260503234547 55 15 0.0 0.0 0.00 0.00 0.00 76 1013.2
20260503233047 56 15 0.0 0.0 0.00 0.00 0.00 77 1013.3
20260503231543 56 15 0.0 0.0 0.00 0.00 0.00 76 1013.1
20260503230046 57 15 0.0 0.0 0.00 0.00 0.00 75 1013.1
20260503224541 57 15 0.0 0.0 0.00 0.00 0.00 73 1013.2
20260503223040 57 15 0.0 0.0 0.00 0.00 0.00 74 1013.3
20260503221538 57 15 0.0 0.0 0.00 0.00 0.00 74 1013.2
20260503220034 56 19 0.0 0.0 0.00 0.00 0.00 71 1013.1
20260503214533 56 19 0.0 0.0 0.00 0.00 0.00 69 1013.0
20260503213033 56 19 0.0 0.0 0.00 0.00 0.00 68 1013.1
20260503211532 55 19 0.0 0.0 0.00 0.00 0.00 70 1013.3
20260503210033 55 19 0.0 0.0 0.00 0.00 0.00 73 1013.3
20260503204530 55 19 0.0 0.0 0.00 0.00 0.00 73 1013.3
20260503203029 56 19 0.0 0.0 0.00 0.00 0.00 74 1013.3
20260503201528 56 19 0.0 0.0 0.00 0.00 0.00 73 1013.2
20260503200028 56 19 0.0 0.0 0.00 0.00 0.00 73 1013.2
20260503194527 56 19 0.0 0.0 0.00 0.00 0.00 72 1013.1
20260503193026 56 19 0.0 0.0 0.00 0.00 0.00 71 1012.8
20260503191535 56 19 0.0 0.0 0.00 0.00 0.00 70 1012.7
20260503190026 57 19 0.0 0.0 0.00 0.00 0.00 71 1012.5
20260503184525 57 19 0.0 0.0 0.00 0.00 0.00 70 1012.5
20260503183025 58 19 0.0 0.0 0.00 0.00 0.00 69 1012.3
20260503181525 58 19 0.0 0.0 0.00 0.00 0.00 68 1012.2
20260503180032 58 19 0.0 0.0 0.00 0.00 0.00 66 1012.1
20260503174524 58 319 0.0 0.0 0.00 0.00 0.00 66 1012.0
20260503173024 58 298 0.0 1.0 0.00 0.00 0.00 69 1012.2
20260503171526 59 267 0.0 7.0 0.00 0.00 0.00 68 1012.3